Regional Weather Roundup
Issued by NWS

Home | Current Version | Previous Version | Graphics & Text | Print | Product List | Glossary On
Versions: 1 2 3 4 5 6 7 8 9 10 11 12 13 14 15 16 17 18 19 20 21 22 23 24 25 26 27 28 29 30 31 32 33 34 35 36 37 38 39 40 41 42 43 44 45 46 47 48 49 50
000
ASUS43 KMPX 222201
RWRMN
WEATHER ROUNDUP FOR MINNESOTA
NATIONAL WEATHER SERVICE TWIN CITIES/CHANHASSEN MN
500 PM CDT SUN OCT 22 2017


NOTE: "FAIR" INDICATES FEW OR NO CLOUDS BELOW 12,000 FEET WITH NO
SIGNIFICANT WEATHER AND/OR OBSTRUCTIONS TO VISIBILITY. N/A MEANS
CURRENT SKY AND/OR WEATHER CONDITIONS ARE NOT AVAILABLE.

MNZ060>063-068>070-222300-
   Twin Cities Metro

CITY           SKY/WX    TMP DP  RH WIND       PRES   REMARKS
TWIN CITIES    MOSUNNY   63  31  30 W12       29.94F
ST PAUL        SUNNY     62  31  31 SW7       29.94F
CRYSTAL        SUNNY     62  30  29 SW8       29.92F
BLAINE         SUNNY     64  30  27 W10       29.93F
LAKEVILLE      SUNNY     61  30  31 SW6       29.95S
EDEN PRAIRIE   SUNNY     63  32  31 SW10      29.93F
SOUTH ST PAUL  SUNNY     63  30  28 W9        29.94F
LAKE ELMO      FAIR      61  34  36 SW6       29.95F
$$
MNZ001>005-007-008-013>017-022>024-027-028-222300-
   Northwest Minnesota

CITY           SKY/WX    TMP DP  RH WIND       PRES   REMARKS
BEMIDJI        SUNNY     58  28  32 SW9G17    29.77F
HALLOCK        PTSUNNY   59  27  29 SW15      29.64F
ROSEAU         MOSUNNY   59  30  33 SW13G24   29.66F
WARROAD        MOSUNNY   61  32  33 SW21G26   29.67F
CROOKSTON      MOSUNNY   63  25  23 W33G40    29.71F
FOSSTON        CLOUDY    57  25  28 SW22      29.75F
DETROIT LAKES  PTSUNNY   59  28  31 SW12G20   29.80F
MOORHEAD       MOSUNNY   61  30  31 S8        29.76F
PARK RAPIDS    SUNNY     58  29  33 SW17G24   29.80F
MAHNOMEN       MOCLDY    59  28  30 SW18G24   29.76F
$$
MNZ006-009>011-018-025>026-222300-
   North Central Minnesota

CITY           SKY/WX    TMP DP  RH WIND       PRES   REMARKS
BAUDETTE       SUNNY     60  28  29 SW20G29   29.70F
FLAG ISLAND    SUNNY     57  30  35 SW20G26   29.64F
INTL FALLS     CLEAR     58  29  33 W12G20    29.75S
WASKISH        MOSUNNY   57  34  41 SW10G18   29.75F
BIG FORK       SUNNY     59  28  31 SW12G18   29.79S
LONGVILLE      SUNNY     57  28  33 SW10G17   29.83S
GRAND RAPIDS   SUNNY     58  30  34 SW10G17   29.84F
CRANE LAKE     CLEAR     55  25  30 SW9       29.80S
ORR            CLEAR     57  25  28 SW8       29.77S
COOK           CLEAR     57  28  33 SW10G16   29.81S
WALKER         FAIR      58  30  34 SW16      29.79F
$$
MNZ012-019>021-037-222300-
   Northeast Minnesota

CITY           SKY/WX    TMP DP  RH WIND       PRES   REMARKS
DULUTH         SUNNY     57  31  37 W12       29.85S
ELY            CLEAR     55  25  30 W14       29.82R
HIBBING        SUNNY     56  27  32 W8        29.83S
EVELETH        CLEAR     58  10  15 SW13G18   29.85R
DULUTH HARBOR  CLEAR     61  30  31 SW15      29.86S
TWO HARBORS    CLEAR     61  37  41 SW14      29.84R
SILVER BAY     CLEAR     61  28  29 SW3       29.82S
G MARAIS ARPRT CLEAR     48  36  61 S7        29.84R
$$
MNZ029>031-032-039>041-046>048-054>057-064-222300-
   West Central Minnesota

CITY           SKY/WX    TMP DP  RH WIND       PRES   REMARKS
FERGUS FALLS   PTSUNNY   61  30  31 SW9       29.81F
WHEATON        PTSUNNY   63  25  23 S10       29.82F
MORRIS         CLOUDY    64  32  29 SW8       29.83F
ALEXANDRIA     MOSUNNY   59  34  39 SW9       29.85F
ELBOW LAKE     FAIR      60  30  32 W8        29.83F
WADENA         SUNNY     57  32  38 SW8       29.83S
GLENWOOD       MOSUNNY   63  34  34 S10       29.86F
APPLETON       MOSUNNY   66  25  20 SW10      29.85S
BENSON         PTSUNNY   63  27  25 SW10      29.87F
ORTONVILLE     CLOUDY    64  28  25 NW10G18   29.84S
MADISON        SUNNY     70  28  21 SW9G16    29.86S
WILLMAR        FAIR      64  32  29 SW6       29.89F
$$
MNZ033>034-036-042>043-049>051-058-059-222300-
   Central Minnesota

CITY           SKY/WX    TMP DP  RH WIND       PRES   REMARKS
ST CLOUD       SUNNY     61  32  33 SW10      29.89F
SAUK CENTRE    FAIR      59  33  37 SW8       29.88S
PAYNESVILLE    SUNNY     61  31  31 SW7       29.89F
AITKIN         SUNNY     57  27  30 SW10G16   29.84F
PINE RIVER     SUNNY     57  32  38 SW8G17    29.87S
BRAINERD       SUNNY     60  28  29 SW14      29.86F
STAPLES        SUNNY     61  27  27 SW15G23   29.85S
LONG PRAIRIE   FAIR      57  32  38 S8G16     29.88S
LITTLE FALLS   SUNNY     59  21  23 SW8       29.88S
LITCHFIELD     SUNNY     64  32  29 CALM      29.91F
BUFFALO        SUNNY     62  31  31 SW6       29.93F
MAPLE LAKE     SUNNY     63  33  32 SW7       29.92F
HUTCHINSON     MOSUNNY   64  31  29 SW6       29.92F
$$
MNZ037-044-045-052-053-222300-
   East Central Minnesota

CITY           SKY/WX    TMP DP  RH WIND       PRES   REMARKS
PRINCETON      SUNNY     63  30  29 SW6       29.91S
MORA           SUNNY     59  30  33 SW3       29.91F
CAMBRIDGE      SUNNY     64  39  39 SW7       29.92S
RUSH CITY      SUNNY     61  30  31 SW6       29.91S
MOOSE LAKE     SUNNY     59  32  36 SW9G17    29.86S
HINCKLEY       FAIR      59  32  36 SW10      29.90S
CLOQUET        SUNNY     59  23  25 SW8       29.86F
MCGREGOR       SUNNY     59  30  33 SW10      29.87S
$$
MNZ071>073-080-081-089-090-097-098-222300-
   Southwest Minnesota

CITY           SKY/WX    TMP DP  RH WIND       PRES   REMARKS
MONTEVIDEO     SUNNY     64  27  24 SW14      29.87F
GRANITE FALLS  SUNNY     66  32  28 S13G18    29.89F
CANBY          CLOUDY    67  27  22 SW14      29.87F
MARSHALL       SUNNY     64  28  25 SW16G22   29.89F
REDWOOD FALLS  SUNNY     65  27  23 SW14      29.90F
OLIVIA         SUNNY     63  32  31 SW13      29.89F
PIPESTONE      SUNNY     63  28  27 SW14G20   29.90F
WORTHINGTON    SUNNY     64  29  26 S15G22    29.94F
JACKSON        SUNNY     63  28  27 SW14      29.96F
TRACY          SUNNY     65  31  27 SW17      29.91F
SLAYTON        SUNNY     64  28  25 SW15G23   29.93F
$$
MNZ065>067-074>077-082>085-091>093-222300-
   South Central Minnesota

CITY           SKY/WX    TMP DP  RH WIND       PRES   REMARKS
MANKATO        SUNNY     64  29  26 SW7       29.95F
NEW ULM        SUNNY     63  28  27 SW8       29.93F
ST JAMES       SUNNY     64  27  24 S9        29.95F
FAIRMONT       SUNNY     63  33  32 S7        29.96F
GLENCOE        SUNNY     64  30  28 SW6       29.92F
FARIBAULT      SUNNY     63  32  31 SW5       29.96F
OWATONNA       SUNNY     63  34  34 W8        29.97F
WASECA         SUNNY     63  32  31 W7        29.97F
$$
MNZ078>079-086>088-094>096-222300-
   Southeast Minnesota

CITY           SKY/WX    TMP DP  RH WIND       PRES   REMARKS
ROCHESTER      CLOUDY    60  38  43 W8        30.00S
RED WING       SUNNY     64  27  24 W6        29.94F
STANTON        SUNNY     63  31  30 W5        29.94F
DODGE CENTER   SUNNY     61  28  29 W9        29.98S
WINONA         CLOUDY    55  43  62 SE5       29.99S
AUSTIN         SUNNY     61  28  29 W8        29.98S
PRESTON        CLOUDY    60  32  34 W6        30.00S
$$
ABBREVIATIONS USED IN REMARKS
   TC - TEMPERATURES IN CELSIUS
  WCI - WIND CHILL INDEX
   HX - HEAT INDEX
  VSB - VISIBILITY
$$




USA.gov is the U.S. government's official web portal to all federal, state and local government web resources and services.